GFSWCAN_2pvu_pres_150.txt.gz
Presure
416 347 325 322 327 336 325 322 320 327 328 326 334 328 325 330 318 308 295 298 289 281 271 270 273 278 275 271 271 272 273 270 215 192 280 300 272 261 257 287 311 284 281 266 275 278 270 254 248 242 237 231 230 224
358 330 318 314 324 328 305 322 330 329 323 320 325 321 320 320 316 303 310 297 294 285 269 279 273 272 281 276 270 273 273 282 276 289 286 274 268 257 258 274 266 267 278 275 287 267 262 239 239 236 234 224 226 226
333 321 314 318 318 317 324 322 322 322 321 315 317 314 309 313 315 311 294 290 297 286 267 271 279 282 268 272 278 276 271 282 284 272 264 258 263 260 258 303 284 284 291 283 269 257 255 240 233 236 223 228 222 225
311 312 310 311 314 319 318 320 318 317 316 311 311 311 312 319 325 315 312 305 294 280 288 281 277 281 276 284 284 280 281 278 261 265 265 272 296 300 271 297 279 283 273 262 256 249 248 229 227 238 225 224 223 228
319 314 307 309 313 310 309 312 317 317 310 319 328 320 319 315 324 320 316 310 294 289 276 284 285 282 289 280 287 278 269 261 267 274 277 278 275 271 264 261 261 261 265 245 249 235 228 232 227 225 226 228 226 220
299 317 328 304 297 308 308 309 306 306 306 337 333 327 313 310 312 307 306 303 297 288 285 288 296 283 275 287 283 279 257 277 269 267 274 277 264 256 257 251 259 247 246 235 233 239 233 233 233 232 230 224 222 216
305 307 318 304 297 304 308 303 308 300 314 322 316 307 301 297 295 286 288 293 295 293 284 287 283 286 279 298 276 256 278 263 258 255 253 255 251 250 239 242 240 240 244 233 225 233 230 231 215 231 225 220 221 219
308 344 316 299 297 305 311 306 302 298 327 311 303 295 291 297 305 285 292 291 287 283 289 290 290 284 273 264 254 285 250 258 247 244 250 244 234 232 236 233 233 231 231 232 232 232 235 234 232 222 223 216 212 213
317 334 303 298 299 307 305 298 296 295 321 311 297 303 304 284 280 294 287 280 286 290 294 278 289 268 265 253 281 260 257 249 247 250 247 244 231 235 234 233 232 231 233 231 233 242 243 222 223 220 213 212 221 225
337 269 283 282 287 302 309 298 294 322 309 306 299 288 280 280 288 280 282 282 286 292 274 294 273 263 256 271 260 244 239 238 236 239 245 247 250 244 244 245 241 234 237 241 236 228 228 227 211 211 223 227 223 229
336 336 346 298 296 303 302 285 293 309 304 291 281 275 280 281 281 283 281 285 293 273 283 283 268 249 269 276 251 239 239 245 243 233 236 233 231 229 228 228 228 231 236 235 223 216 223 217 217 228 225 231 232 232
343 338 353 301 301 302 297 293 304 306 299 286 278 280 284 281 285 287 278 299 269 290 290 273 252 272 276 250 235 244 239 236 239 237 233 235 238 241 242 235 231 232 225 223 224 223 216 228 225 224 220 216 227 220
346 355 322 306 299 305 305 308 307 301 291 289 284 282 282 290 290 291 315 270 292 287 269 253 272 259 246 240 243 239 237 236 236 235 235 230 232 228 230 231 231 230 226 223 223 228 229 223 218 219 217 220 220 223
373 326 314 313 320 323 313 307 305 306 300 291 290 290 296 299 302 310 274 298 293 269 257 276 261 246 243 241 238 235 235 238 232 233 230 228 221 224 236 237 237 234 234 235 226 227 223 224 222 223 217 224 227 216
321 319 323 304 296 315 312 308 306 306 306 306 307 307 307 303 299 284 306 282 270 268 269 267 243 242 241 239 239 239 237 232 229 222 222 222 219 217 223 224 230 230 230 229 224 225 221 219 221 222 222 222 227 223
317 312 295 296 296 317 315 309 303 302 301 303 304 299 300 294 304 318 283 275 266 271 264 255 239 244 237 236 234 232 237 233 223 222 230 224 218 214 223 221 230 226 225 222 220 220 224 224 224 224 217 210 209 224
319 321 324 320 317 312 307 301 300 302 310 302 295 294 319 316 308 284 278 268 255 265 251 241 242 238 243 237 231 237 238 226 232 229 214 231 222 224 223 225 227 226 223 220 223 211 216 226 223 212 222 224 225 232
315 315 320 317 315 309 311 304 304 313 313 321 321 326 312 301 285 276 267 258 265 258 243 241 239 245 243 236 232 230 232 236 234 229 227 227 225 228 225 224 214 216 222 219 218 221 223 216 229 228 225 223 236 228
322 326 332 338 328 335 330 322 328 329 335 338 308 296 288 278 270 262 259 268 264 255 246 240 234 239 239 244 240 233 234 223 232 234 234 226 227 214 211 218 222 221 223 222 218 224 229 230 226 214 239 234 235 226
306 304 308 311 312 316 304 310 316 301 287 282 282 277 271 267 260 263 281 273 261 247 244 239 233 239 243 244 239 238 234 236 236 234 230 231 229 227 226 218 226 225 226 226 226 234 232 220 229 234 232 229 230 234
299 307 307 303 305 309 309 288 280 278 270 274 276 276 265 244 257 280 278 268 260 253 247 244 239 242 243 239 239 236 236 235 234 234 229 228 227 225 226 230 229 227 230 238 238 220 226 234 231 226 231 237 236 266
297 296 299 307 303 302 276 275 277 275 275 266 266 252 262 268 283 284 275 268 260 253 254 251 244 246 239 240 234 232 236 233 227 231 233 233 230 226 224 228 233 234 228 218 228 234 233 230 227 237 241 242 287 277
292 292 293 304 296 276 272 277 277 281 267 255 257 260 263 277 284 282 268 267 244 253 255 239 241 245 236 237 240 236 233 232 232 230 223 230 229 236 236 232 219 219 237 235 234 235 235 244 244 242 262 283 273 271
287 288 290 290 299 298 274 269 273 273 255 249 250 271 281 280 282 284 278 264 250 247 248 245 236 235 241 242 242 245 243 241 240 239 236 233 233 234 236 238 238 237 237 233 240 242 243 242 261 282 278 274 275 272
286 289 290 288 290 288 287 281 261 268 261 263 258 258 255 255 273 282 274 277 277 252 246 247 248 246 245 243 242 243 241 239 239 240 239 238 236 234 235 236 243 243 241 239 239 249 275 286 279 278 276 276 275 275
300 296 289 288 287 289 286 285 285 281 275 262 262 262 261 260 262 261 265 270 277 278 271 251 250 251 250 242 239 239 241 239 240 244 246 246 247 247 246 244 243 244 246 250 261 287 286 280 279 276 277 276 273 274
322 314 308 304 297 293 291 290 289 286 279 278 273 268 260 256 258 258 258 261 263 264 266 262 258 254 254 253 252 250 249 248 248 248 249 249 249 250 250 250 251 265 283 281 291 290 288 285 282 280 280 281 285 290
441 393 372 329 317 310 305 301 300 296 292 291 288 282 281 279 277 279 278 273 267 262 260 259 258 258 256 258 259 257 257 255 254 255 255 259 264 271 275 279 271 277 285 279 277 275 281 287 289 293 298 302 296 298
413 438 368 363 378 398 364 326 320 315 310 308 306 300 295 296 294 290 289 289 288 288 286 285 284 284 282 280 279 278 280 283 284 285 287 288 286 287 286 286 284 281 284 287 286 282 290 294 293 293 296 305 325 348
373 371 364 354 352 362 360 366 373 376 360 343 332 328 322 319 318 316 311 309 310 311 312 313 314 324 328 334 332 328 322 320 320 315 313 312 313 312 309 307 303 297 295 288 284 287 294 300 307 344 353 337 327 321
349 372 375 369 364 359 357 358 353 357 363 365 367 350 338 333 332 330 332 332 336 334 331 330 330 328 326 323 323 322 317 314 311 307 306 305 302 299 295 294 293 292 295 302 306 313 357 350 337 328 321 313 302 293
353 340 336 358 368 368 363 363 361 348 352 363 357 356 354 350 344 332 328 323 321 320 316 319 322 318 315 315 312 310 310 310 312 311 311 309 308 307 307 307 307 306 346 361 343 329 320 312 303 294 291 302 308 314
365 358 348 343 331 323 347 359 368 364 361 365 358 356 349 343 340 341 340 334 327 320 315 310 313 314 313 312 310 309 308 307 307 306 305 305 305 313 331 362 347 331 321 314 305 299 292 291 309 317 319 325 347 368

GFSWCAN_2pvu_pres_153.txt.gz
Presure
443 432 478 432 364 334 344 347 336 313 324 326 323 321 322 324 327 319 306 315 293 291 284 302 277 290 280 269 282 277 280 272 272 267 268 266 265 268 271 286 297 260 271 305 282 281 305 289 257 256 247 242 238 233
434 499 444 390 340 321 339 340 320 320 306 311 309 323 328 326 327 329 324 309 296 305 298 277 282 268 262 276 266 272 270 267 266 269 259 269 267 272 280 305 266 256 284 281 292 294 293 253 252 247 241 238 225 233
421 441 359 334 324 348 324 316 307 308 305 309 325 323 324 323 327 325 325 324 309 302 278 296 271 275 275 276 270 264 262 267 265 272 272 268 270 289 287 263 262 261 269 268 263 268 274 248 245 240 238 230 237 226
378 349 326 321 324 326 319 318 313 303 307 321 316 314 315 315 316 311 316 317 305 288 288 276 281 276 278 274 270 261 272 266 275 273 267 275 277 268 258 266 259 270 264 258 268 265 268 244 243 240 240 224 228 216
329 324 325 307 322 329 320 309 307 308 317 316 308 305 312 316 312 310 311 302 299 290 283 279 283 279 274 271 262 271 269 275 277 271 271 263 252 257 272 285 252 274 265 276 264 255 264 245 233 239 224 235 218 225
322 322 317 312 317 322 313 312 319 315 309 308 309 309 319 316 307 307 305 304 289 297 282 284 281 280 270 270 271 272 276 287 276 273 253 256 269 278 271 273 277 269 266 262 257 254 246 238 233 237 234 238 224 223
295 297 309 311 317 321 318 310 308 308 310 311 311 309 309 306 308 307 309 305 304 279 280 287 279 273 275 270 279 279 282 278 263 253 257 265 271 273 252 254 253 253 256 261 257 238 241 232 233 232 232 227 231 231
301 292 301 307 310 308 308 312 309 310 309 311 315 318 302 304 297 307 313 310 311 313 289 284 282 286 276 278 285 274 274 267 253 259 266 265 272 251 247 244 254 251 264 252 234 234 235 236 232 226 227 220 227 221
299 302 298 299 305 308 307 304 300 302 301 302 335 328 321 303 291 289 296 298 297 299 292 288 283 283 286 286 276 270 284 257 266 265 264 274 252 240 245 244 245 251 247 242 234 232 227 231 227 223 234 229 222 219
284 272 309 305 307 307 307 301 300 297 305 323 316 305 298 295 294 296 298 288 287 292 292 294 294 286 272 282 275 290 259 271 260 255 259 248 241 243 233 236 223 234 234 233 233 233 236 237 241 235 221 225 212 213
287 296 301 296 301 303 301 299 293 299 317 303 295 287 288 286 285 296 290 289 288 283 283 280 277 287 273 283 281 253 279 258 250 249 241 238 240 236 236 233 233 231 230 234 235 237 237 239 227 229 219 213 219 226
331 318 298 300 299 297 303 295 289 309 303 292 290 284 283 297 282 284 287 277 272 275 282 285 282 271 281 265 254 291 250 250 239 245 246 244 239 242 239 238 242 244 243 236 235 225 229 216 216 218 219 225 226 223
311 292 285 299 307 301 294 290 284 311 303 289 295 298 290 279 290 281 268 267 273 275 287 277 271 280 274 256 274 255 248 243 241 236 239 237 234 234 234 231 233 227 233 233 234 232 223 219 229 220 228 225 217 218
286 305 312 297 305 300 292 286 313 297 293 294 291 283 277 285 279 273 268 266 276 271 279 268 281 269 259 269 253 242 239 236 235 242 234 230 231 230 236 240 240 237 235 234 231 227 225 224 230 226 218 225 225 222
315 344 308 298 303 296 285 284 306 301 289 288 283 276 278 284 280 276 268 271 282 281 276 277 290 275 253 264 245 239 234 233 235 236 232 233 233 232 233 231 230 232 233 234 233 234 233 224 227 227 221 214 223 223
388 360 298 301 302 291 292 294 302 298 294 286 280 277 286 280 273 278 267 289 280 276 272 300 290 254 271 248 243 236 237 238 234 233 231 234 231 227 223 232 232 229 232 232 227 227 228 227 221 220 220 220 226 226
319 307 303 307 311 314 309 305 304 300 292 289 286 284 279 282 289 277 300 292 282 274 297 298 261 268 250 240 238 239 241 238 231 232 229 229 229 223 224 219 218 216 226 223 223 222 223 223 217 222 219 221 227 224
319 317 312 298 304 306 307 306 305 309 304 296 293 290 297 301 292 303 296 288 280 302 291 259 267 248 246 242 240 236 236 235 233 233 226 228 223 226 226 223 217 221 225 227 227 223 218 221 224 222 223 224 228 230
316 309 303 302 307 310 307 317 310 315 308 314 304 305 301 299 301 297 282 309 294 286 257 266 257 249 243 241 239 236 235 233 233 236 232 232 224 229 225 232 231 227 231 224 216 219 222 224 226 226 226 234 226 224
332 336 326 328 326 321 311 319 310 295 299 302 306 309 306 302 295 310 301 287 282 269 257 267 254 250 242 243 240 237 235 236 230 237 235 232 227 233 225 232 227 228 225 212 225 222 225 229 226 233 235 222 226 228
309 310 317 331 324 325 326 313 316 329 321 313 320 328 317 306 300 293 291 282 266 263 265 266 257 246 245 244 242 244 239 236 231 230 227 236 225 228 238 239 233 232 229 228 224 228 236 228 237 225 206 237 229 229
315 309 312 311 306 301 306 309 312 312 315 312 302 298 293 291 293 293 286 276 258 256 265 261 258 242 245 242 241 247 244 242 239 244 238 237 236 238 238 235 232 232 233 233 235 233 235 223 212 232 235 235 237 239
303 307 309 309 311 313 307 312 308 298 292 292 291 290 288 290 294 289 274 267 266 263 261 268 259 249 244 242 238 238 237 240 247 245 241 239 238 233 234 236 236 237 233 238 235 233 236 235 232 229 239 242 241 243
296 298 305 308 316 309 308 295 292 292 283 287 287 287 289 282 268 254 258 263 266 275 281 276 265 253 247 246 244 243 244 242 242 243 242 238 236 228 227 233 239 241 243 241 239 236 232 233 237 244 244 243 251 253
292 293 293 302 312 307 293 290 284 288 287 278 280 283 281 272 261 261 259 262 270 283 285 279 272 260 253 250 252 242 241 242 244 241 241 242 242 238 237 239 241 246 240 234 234 243 244 247 247 249 251 257 260 287
304 296 297 296 294 301 291 277 276 278 284 286 283 256 254 253 259 266 277 281 281 285 290 283 277 267 255 260 258 257 251 245 241 241 247 249 245 240 235 235 244 248 248 244 241 243 246 249 255 259 267 282 282 277
332 323 315 304 296 295 296 296 299 286 276 274 276 274 265 261 259 260 262 262 268 275 283 287 290 283 272 262 252 251 252 253 253 251 253 252 251 250 247 243 240 243 247 251 255 259 261 262 273 279 282 285 280 287
447 456 372 339 327 315 299 298 296 294 293 292 290 284 276 273 272 270 270 268 265 264 264 264 265 269 281 283 283 280 280 253 252 257 259 260 261 263 265 266 265 263 261 261 266 275 281 291 295 306 309 304 299 293
384 390 418 442 472 379 345 329 316 305 301 297 297 292 289 291 288 286 285 283 278 275 273 270 268 266 265 264 264 263 263 262 260 261 259 260 261 264 267 270 280 281 288 318 314 318 312 307 304 298 294 293 298 306
352 361 383 379 379 377 363 373 390 375 340 325 318 310 303 299 299 296 293 293 292 291 290 288 288 287 286 285 285 285 287 288 289 291 294 306 308 310 334 327 324 322 317 312 304 304 302 299 298 300 304 326 349 331
382 372 358 349 373 383 371 363 357 364 370 376 385 372 347 333 328 325 320 316 313 309 307 307 306 308 309 310 312 313 315 335 336 338 334 331 329 327 324 318 313 307 305 305 306 306 304 304 305 344 336 319 305 294
417 397 382 368 357 346 342 378 374 369 363 361 358 355 355 367 369 367 359 351 343 338 332 331 329 327 329 330 332 331 330 329 326 321 318 316 313 309 306 306 306 306 305 303 302 305 356 339 320 307 300 290 287 309
418 432 419 396 381 365 356 348 337 331 367 374 373 366 355 354 361 356 357 356 351 347 343 335 331 326 322 319 318 314 309 312 317 315 312 309 306 305 305 303 303 307 325 356 335 317 307 297 297 290 284 308 303 295

GFSWCAN_2pvu_pres_156.txt.gz
Presure
438 443 457 453 459 462 489 325 361 369 351 325 337 295 290 296 309 305 306 321 320 325 314 309 298 295 292 285 296 286 293 285 277 272 273 269 261 261 263 268 271 269 274 267 281 267 289 295 281 307 254 260 257 252
431 430 434 431 443 457 487 343 377 350 334 323 305 309 324 299 298 308 316 317 320 326 304 294 297 284 280 289 274 278 268 273 271 271 271 267 258 263 265 267 272 272 265 293 262 270 290 275 292 259 253 256 249 245
448 446 441 443 464 495 351 341 355 327 315 326 311 305 309 297 298 309 301 317 312 310 314 307 285 290 287 273 285 268 275 267 271 270 264 262 264 264 266 268 271 294 289 260 253 279 264 300 281 252 256 245 242 240
426 463 447 457 386 345 342 380 336 323 323 317 316 309 302 298 305 302 302 316 315 310 303 300 303 291 284 286 281 273 261 263 266 268 259 262 260 269 270 270 284 274 261 254 267 272 276 254 267 245 252 244 240 233
441 430 399 347 331 337 352 337 331 310 305 297 310 301 296 296 304 308 309 319 325 320 314 289 287 277 287 294 274 260 264 267 266 257 263 258 267 274 274 276 271 257 263 261 276 263 257 258 257 244 243 243 240 235
347 327 321 318 317 347 336 317 308 294 291 296 297 300 298 303 306 310 315 317 322 335 341 300 284 300 279 276 263 267 270 269 263 267 264 267 268 273 270 256 251 292 262 274 256 265 273 254 256 241 243 230 234 214
319 310 309 290 313 307 301 301 307 294 290 298 298 310 311 303 302 306 301 308 310 321 317 305 300 277 288 274 264 270 268 266 265 270 271 266 266 261 254 267 271 268 262 263 256 289 260 252 259 239 237 235 225 223
313 307 317 301 303 304 299 294 291 293 298 293 308 303 303 299 304 301 299 309 301 310 309 289 285 279 279 271 267 269 271 267 277 275 269 271 259 252 259 269 265 263 263 257 252 252 258 257 251 236 231 230 231 226
309 320 319 308 300 296 307 298 299 303 306 301 304 299 297 301 302 291 298 307 306 310 299 294 283 283 274 273 267 274 267 272 277 278 273 262 251 258 258 273 248 250 244 244 251 261 253 234 237 242 234 232 231 230
304 312 319 311 315 305 302 303 298 298 301 302 303 308 294 292 302 300 300 301 316 312 292 295 294 281 280 272 269 270 277 281 280 278 263 250 260 261 267 246 239 239 245 258 255 252 236 234 234 232 230 229 224 226
295 301 300 297 303 305 305 301 303 301 302 304 305 308 305 302 300 307 312 317 312 307 310 298 278 280 279 271 278 277 286 285 283 264 254 260 258 265 254 239 234 242 244 247 250 236 232 235 229 231 232 239 239 222
292 304 301 300 302 302 301 304 303 304 295 300 324 322 316 305 302 300 296 292 291 293 298 298 292 286 284 281 283 288 281 273 280 252 262 260 265 248 238 237 239 230 231 229 225 228 231 232 234 234 235 228 221 220
277 300 303 301 305 306 299 293 287 289 315 308 305 305 301 299 298 293 288 283 282 285 288 289 289 288 286 282 274 282 280 285 249 261 252 247 253 237 239 244 234 232 227 225 230 235 237 235 227 226 222 218 215 223
296 285 293 300 300 300 300 295 291 313 300 295 294 295 291 286 285 279 278 276 279 285 283 278 273 267 268 278 274 283 269 252 263 250 245 242 235 240 227 233 241 241 238 240 236 230 233 236 228 230 226 222 223 228
304 299 314 302 301 301 295 288 310 304 296 291 289 284 288 283 278 276 278 278 275 271 270 273 270 276 279 273 286 249 264 265 247 241 239 242 241 236 234 236 230 230 229 231 235 233 230 229 228 229 224 230 229 226
313 301 298 309 305 298 295 287 297 307 294 289 284 289 279 277 275 275 272 268 272 268 276 276 282 284 274 286 254 255 253 245 246 242 233 239 232 234 230 229 227 232 230 232 228 227 229 232 234 235 225 224 227 220
309 329 304 303 300 296 293 298 315 304 292 297 292 284 276 277 274 273 268 265 263 266 282 283 288 277 272 284 248 263 248 249 242 232 235 238 234 225 227 227 226 232 228 237 238 233 231 228 216 228 227 225 217 221
400 372 304 308 302 286 285 288 303 300 292 291 284 278 278 278 277 273 270 268 263 269 274 294 300 269 289 261 254 260 250 241 233 235 237 236 228 234 224 229 227 231 215 229 224 219 211 227 227 225 225 231 215 219
314 304 301 304 299 295 296 303 302 301 297 291 285 281 276 280 280 280 277 272 270 271 273 294 281 268 297 249 262 255 244 242 238 233 240 227 226 232 229 225 227 229 215 225 224 223 229 214 224 227 226 224 223 224
314 313 321 321 313 311 320 313 311 294 304 295 289 286 279 279 283 278 279 288 284 276 296 289 269 290 287 251 264 255 243 243 235 234 239 232 228 229 230 230 223 230 226 224 228 226 231 231 232 233 214 225 225 228
342 323 332 329 313 312 313 317 306 317 295 306 301 295 222 285 284 283 302 287 303 302 296 269 290 283 252 260 267 252 246 241 237 236 233 236 233 230 229 234 232 228 226 223 225 232 234 236 235 232 229 227 233 234
319 327 339 335 324 304 284 302 308 291 304 307 306 304 305 305 302 303 299 302 298 303 301 290 284 258 259 264 260 248 244 238 237 234 232 232 233 235 233 229 235 231 236 238 237 235 237 237 233 233 234 234 235 237
317 321 320 316 316 321 323 332 323 318 302 303 304 307 304 301 301 302 304 296 311 301 288 284 278 257 263 260 253 247 246 239 238 237 236 236 237 234 236 236 235 235 234 232 227 225 233 237 231 237 237 239 242 237
301 301 311 319 317 309 309 296 316 316 317 321 314 319 324 321 312 302 297 305 301 286 280 276 271 258 257 267 258 251 247 245 242 244 244 238 245 246 245 244 242 244 243 242 236 231 235 237 243 240 246 240 240 245
296 295 303 291 308 310 315 319 319 318 315 312 311 305 304 305 299 299 299 299 292 282 277 272 262 261 264 263 269 264 254 246 243 243 244 240 240 244 244 239 239 241 243 242 242 242 232 241 236 230 247 243 238 240
324 314 305 302 298 303 310 310 314 311 308 302 299 298 301 299 293 293 287 290 287 277 276 275 271 263 257 254 260 266 264 260 256 249 247 246 246 244 242 240 240 241 239 243 246 245 247 249 246 240 243 258 262 262
437 382 339 328 315 307 300 305 310 303 296 295 292 295 290 286 287 282 286 279 275 273 257 257 259 259 262 269 283 287 286 281 278 267 259 249 247 246 249 251 254 252 251 253 255 247 242 247 259 261 262 261 272 285
378 386 399 445 452 342 324 311 302 301 307 298 289 283 287 287 285 271 269 261 260 260 260 262 266 279 285 285 283 283 285 287 289 287 279 273 255 253 251 249 243 247 259 270 285 285 274 261 262 278 288 323 319 316
403 382 376 370 390 405 434 448 339 320 308 306 300 301 298 294 286 282 282 282 276 272 269 268 265 264 263 263 264 264 264 265 270 279 281 284 285 284 284 281 268 261 259 265 269 277 287 299 330 323 317 313 307 306
398 431 407 392 377 367 380 388 398 406 382 342 323 312 306 300 302 300 296 292 289 287 285 281 280 279 278 277 276 275 274 273 271 271 270 271 274 277 280 283 285 288 298 325 336 331 324 321 316 311 309 308 307 305
284 301 431 438 409 391 374 363 370 383 378 373 369 375 381 360 323 311 305 303 303 302 300 297 295 293 291 290 290 289 288 289 289 289 289 290 292 299 315 333 334 335 329 323 319 315 310 307 304 303 303 304 333 338
270 284 295 427 417 423 406 387 374 361 350 373 377 372 367 363 360 369 377 383 377 328 325 319 315 314 314 314 312 313 313 315 316 319 330 334 334 330 324 323 322 319 315 310 307 305 304 303 303 309 344 325 307 297
266 273 282 297 433 423 422 424 407 383 372 358 346 337 360 377 370 360 363 357 354 354 357 361 361 362 359 355 348 342 336 331 327 326 321 317 314 312 307 303 306 307 305 304 304 305 314 345 326 310 300 292 290 288

GFSWCAN_2pvu_pres_162.txt.gz
Presure
482 488 489 483 489 494 493 458 377 386 392 381 354 345 353 306 361 353 316 307 306 308 305 314 310 328 318 307 318 324 317 339 329 317 316 306 295 301 290 279 284 277 276 276 276 271 258 273 278 276 277 284 269 284
419 428 439 450 454 460 464 472 491 507 369 390 379 351 337 349 210 326 315 308 300 298 298 303 312 300 312 304 308 316 326 323 310 318 306 303 290 283 277 269 268 267 270 264 259 271 265 268 275 271 282 268 284 292
422 412 437 449 438 439 450 465 481 503 527 379 385 365 343 341 335 309 302 295 296 295 297 298 300 296 316 318 315 311 314 316 296 305 296 292 281 274 270 266 268 266 264 268 263 262 266 266 274 281 269 274 269 288
427 418 417 416 419 433 435 448 458 486 515 361 385 371 338 332 329 303 295 304 292 292 289 295 305 301 297 303 304 311 312 297 300 294 286 274 274 269 267 270 265 266 268 269 267 265 271 269 287 279 283 273 250 271
431 443 438 439 440 427 436 452 466 486 417 362 385 362 343 325 298 291 287 290 282 300 291 304 299 305 291 297 299 302 306 306 298 286 280 273 269 269 272 263 261 267 264 264 265 265 277 277 274 262 264 279 283 254
439 453 456 467 438 443 439 458 473 489 354 385 362 345 321 314 300 293 274 288 293 289 293 300 297 299 301 307 304 300 298 298 278 288 273 272 272 269 265 260 260 266 268 267 271 277 281 268 257 248 259 291 290 245
386 387 400 448 522 482 478 460 354 354 377 357 329 322 311 295 289 283 289 286 285 290 306 293 296 303 302 309 320 296 296 282 280 277 272 268 270 265 264 255 267 266 267 271 272 270 268 264 256 269 257 247 279 235
338 336 334 332 332 334 337 353 376 357 331 322 314 312 299 290 280 287 280 287 286 292 290 296 306 289 315 340 307 298 277 290 283 266 271 263 267 261 253 264 268 268 272 268 262 255 273 263 254 246 248 245 278 235
339 328 329 331 332 340 338 331 317 311 306 295 293 293 283 280 285 288 291 285 286 287 292 289 324 324 327 329 302 287 300 299 276 268 266 267 257 251 263 267 271 277 263 262 272 274 263 254 265 263 274 265 253 235
320 319 321 321 322 319 316 313 302 302 302 294 291 285 283 287 279 288 282 291 292 299 315 306 309 317 332 321 305 296 300 291 263 283 269 258 255 264 269 267 277 267 260 271 268 268 265 256 256 255 264 256 246 237
308 301 309 311 310 308 310 308 304 293 289 290 296 294 284 285 289 292 298 308 312 298 301 305 304 308 323 308 299 293 277 276 280 279 261 263 267 272 267 278 272 257 262 261 259 252 250 250 254 259 261 254 254 240
295 310 302 290 290 303 295 295 301 295 290 290 292 294 292 301 298 304 304 296 296 301 305 304 299 302 303 305 285 283 286 277 274 267 261 267 276 266 276 280 266 257 267 257 244 250 249 251 252 256 243 241 244 238
301 296 306 295 283 293 296 299 301 295 308 304 296 305 285 300 303 292 297 305 301 298 296 294 297 301 290 292 288 286 282 282 277 269 267 271 269 273 283 269 255 266 263 244 242 239 241 244 247 255 239 235 230 227
283 293 291 293 282 286 283 290 285 286 302 310 311 305 301 299 294 298 296 305 294 295 303 299 294 295 289 284 279 277 281 277 273 267 274 275 283 279 278 254 260 265 257 239 244 237 230 226 224 226 227 229 229 232
294 293 298 307 307 300 292 291 292 294 300 303 306 311 306 306 310 295 291 293 302 308 300 298 294 295 293 288 294 290 287 281 274 272 280 292 279 282 255 257 262 263 247 243 237 237 230 231 234 234 236 239 235 233
306 303 305 305 304 309 314 318 311 310 310 303 301 303 306 307 305 301 300 304 303 294 293 297 298 300 300 296 287 272 276 277 284 287 289 278 280 253 259 260 259 251 237 242 239 235 239 241 238 230 232 233 233 232
332 303 310 315 311 310 314 309 306 294 295 313 317 312 312 299 300 297 293 288 287 283 285 291 287 289 289 287 287 284 286 282 278 275 270 286 255 258 256 258 247 238 238 231 238 241 239 235 238 237 234 227 227 227
330 302 319 310 317 312 310 306 299 319 315 307 302 302 299 295 290 290 289 284 285 284 284 284 285 283 283 285 281 274 275 274 270 274 287 263 251 256 248 248 245 246 241 240 239 237 233 233 227 229 221 220 217 222
371 319 317 323 313 313 311 297 326 311 303 298 293 292 292 287 286 285 284 286 282 279 282 283 283 278 273 275 266 271 277 276 276 281 257 250 257 251 247 244 239 240 237 236 236 234 229 225 228 228 226 225 224 222
386 373 319 320 321 311 307 289 297 310 299 293 294 289 284 284 285 286 285 281 280 281 279 273 273 273 266 274 274 272 282 277 276 266 249 261 260 251 247 241 239 237 237 236 235 232 233 233 229 229 232 228 228 229
338 327 320 319 321 315 266 266 288 317 306 299 295 290 286 284 284 282 281 276 275 277 278 278 270 268 268 266 271 275 285 282 273 257 257 275 264 251 246 244 242 237 236 235 235 238 237 230 234 232 227 226 227 228
321 342 352 346 332 321 311 307 306 276 318 308 302 296 294 290 287 287 238 278 279 280 278 277 277 274 273 253 271 263 275 305 278 259 255 256 260 250 247 245 242 239 235 232 232 236 235 236 235 234 236 236 235 234
328 322 322 323 346 355 343 339 332 324 322 297 295 293 300 296 292 287 282 279 279 280 280 278 282 280 275 284 257 285 288 304 270 283 268 255 253 258 250 247 247 245 240 237 237 238 238 237 237 237 237 235 231 228
346 340 338 327 322 315 321 326 345 347 337 334 327 309 302 302 295 295 287 283 284 286 281 283 282 282 284 293 291 296 308 301 261 265 288 276 256 248 261 256 251 247 244 240 240 242 242 240 238 231 229 230 235 242
275 317 364 348 344 338 328 323 316 313 320 326 334 348 332 328 327 321 312 304 306 303 300 297 296 296 293 292 312 315 312 296 271 286 285 279 275 259 247 254 265 262 254 249 246 244 239 230 230 240 243 243 244 245
261 267 273 299 412 374 351 342 335 324 320 314 310 314 323 326 325 325 324 321 320 324 326 324 322 321 320 319 314 310 301 297 284 285 279 275 275 270 256 250 256 262 264 261 255 251 250 249 249 248 248 250 254 259
264 263 258 266 274 315 404 413 400 357 342 332 323 319 313 313 326 320 321 328 336 336 333 333 330 331 315 314 312 310 306 298 290 286 281 273 268 260 258 255 254 254 257 259 260 261 261 262 263 271 277 282 281 280
263 255 266 269 259 266 275 337 421 392 397 412 358 337 326 318 308 314 315 304 304 303 307 311 315 313 307 304 305 305 300 292 286 283 281 277 275 272 268 266 266 265 257 254 255 258 261 271 277 270 264 258 255 254
259 270 257 264 265 271 264 267 277 430 440 408 384 397 413 346 328 316 311 308 306 301 298 293 296 297 296 295 296 299 298 290 282 279 276 275 273 272 270 268 273 266 264 257 256 259 253 251 254 259 271 275 279 283
283 270 266 268 267 262 267 269 268 272 290 436 438 408 386 380 401 370 330 320 313 309 304 300 294 290 283 282 281 277 283 285 273 276 275 270 262 254 259 254 254 253 254 255 256 258 263 272 280 284 284 286 291 310
264 276 288 276 271 271 267 271 271 272 273 285 442 440 427 401 383 374 387 391 340 326 316 311 305 301 296 290 287 284 280 277 277 276 275 273 269 268 267 266 267 268 271 272 275 280 283 285 288 290 303 325 326 318
260 265 269 286 294 279 271 270 271 277 273 272 283 459 441 439 414 392 379 373 372 382 382 342 326 319 313 307 307 303 294 293 290 288 286 285 282 282 282 283 285 292 293 291 291 293 297 319 337 338 323 320 316 316
258 261 266 268 286 296 299 257 270 276 276 277 276 283 462 454 432 427 405 394 372 356 367 371 366 366 370 370 348 335 326 320 314 312 310 308 305 304 303 304 307 317 320 348 352 348 338 333 331 326 321 319 318 317

GFSWCAN_2pvu_pres_165.txt.gz
Presure
388 386 384 382 382 383 385 386 390 399 401 385 374 362 358 359 370 372 366 347 334 317 311 310 311 308 309 311 317 318 328 329 322 317 310 313 318 301 308 294 294 293 280 295 280 280 277 272 276 269 271 275 272 279
453 471 475 437 430 441 468 477 493 495 463 373 391 381 358 352 354 365 368 218 314 306 295 309 298 306 297 303 318 319 323 317 316 337 321 314 307 297 296 289 287 282 290 280 283 279 274 273 268 273 269 276 274 273
406 421 451 453 433 422 423 458 455 469 470 500 378 381 373 351 352 361 342 360 316 309 300 296 295 302 299 306 301 306 304 312 326 316 323 315 321 298 304 306 301 293 283 277 272 272 271 266 272 270 273 271 279 271
417 415 433 462 423 416 451 436 434 442 473 491 514 370 378 350 353 346 331 327 307 301 308 307 298 308 304 300 297 300 306 317 321 311 322 301 309 303 300 300 292 281 273 271 269 271 271 266 269 272 269 283 273 265
458 444 461 449 419 427 423 430 429 436 463 485 514 359 365 345 340 323 324 311 298 293 291 289 294 284 300 291 279 295 298 303 316 307 308 298 294 290 294 286 269 272 271 275 272 272 267 269 266 262 278 288 271 274
476 472 461 447 425 431 428 425 432 436 462 490 378 389 354 339 324 327 319 311 290 288 290 293 294 289 284 297 289 288 290 303 305 306 301 292 288 293 279 268 266 270 280 272 267 264 263 268 274 273 257 255 258 271
377 472 469 469 454 439 436 441 443 458 473 369 367 369 343 326 312 313 314 307 290 289 291 289 288 291 297 291 287 294 299 303 305 298 293 289 289 279 267 262 275 280 271 263 266 261 263 277 261 260 260 246 250 266
335 346 428 495 456 459 473 472 477 440 342 367 370 355 330 317 309 306 287 286 289 288 291 295 289 285 287 295 299 306 314 317 306 285 279 276 287 267 262 275 281 271 265 264 263 261 268 275 261 260 255 268 259 267
349 347 329 338 381 394 368 353 343 361 369 359 341 325 308 314 304 296 296 289 283 290 284 291 285 298 299 300 312 311 352 310 293 272 278 277 266 259 272 274 267 261 259 265 266 267 268 258 248 271 256 273 262 244
326 333 339 347 355 362 367 369 364 353 342 328 318 304 302 303 291 283 284 289 287 285 278 281 301 288 293 312 319 343 312 294 288 278 276 275 262 266 259 265 253 263 267 271 267 256 263 272 270 255 247 277 262 249
325 312 317 318 320 321 315 313 313 319 317 312 308 303 293 291 286 287 298 287 286 284 290 284 300 312 311 310 330 310 297 292 289 302 278 266 274 258 262 259 257 268 270 271 258 268 262 266 267 260 254 259 259 252
293 312 305 301 300 306 305 305 300 303 303 303 296 295 294 289 281 284 284 281 286 273 288 305 310 301 305 316 315 295 292 297 285 290 267 271 273 260 259 254 265 267 273 261 262 265 259 253 254 252 257 255 256 258
287 285 307 301 289 281 293 295 298 293 295 302 295 288 283 279 280 283 285 283 286 300 314 304 295 297 300 309 298 295 296 281 282 283 261 283 269 263 261 270 270 272 282 259 266 261 255 250 250 253 255 262 257 251
300 309 283 281 295 308 297 290 293 297 293 283 289 290 292 279 285 289 291 302 315 302 307 298 292 302 299 301 305 282 270 277 285 284 278 270 261 266 265 273 267 280 272 255 270 255 248 247 238 246 250 255 251 237
295 295 286 288 295 290 293 303 298 288 281 293 299 296 295 291 297 307 306 300 308 298 294 292 293 299 293 289 296 289 290 281 269 275 271 267 266 266 274 269 282 281 257 262 270 247 244 239 240 238 236 233 234 232
305 301 302 302 305 294 292 296 294 306 303 303 296 300 302 305 305 307 301 303 309 298 294 300 308 301 298 292 287 282 275 269 270 272 270 275 271 271 268 282 281 265 255 267 266 243 244 235 237 232 230 230 232 237
310 314 310 313 314 317 320 319 316 312 310 308 310 308 308 308 310 320 294 294 296 303 301 301 305 302 301 293 287 287 286 281 282 279 280 276 273 285 285 277 276 257 261 266 257 245 242 236 239 235 233 241 230 234
314 304 315 321 324 321 321 318 318 309 301 300 303 314 323 327 313 307 300 306 298 295 301 301 303 306 302 299 293 282 277 275 274 272 275 282 285 281 274 278 258 259 262 262 248 236 244 239 239 244 238 234 237 237
324 348 364 322 326 317 315 312 303 305 319 317 314 312 316 314 302 300 300 288 287 288 287 285 284 285 283 282 282 281 279 276 280 281 281 276 276 259 279 262 256 259 263 252 250 241 238 237 240 243 240 238 234 234
326 322 325 330 324 317 315 297 300 322 313 307 306 305 305 305 303 298 290 290 285 282 284 277 278 284 282 279 280 278 279 275 269 275 273 271 270 281 285 259 256 258 252 252 249 247 245 246 241 241 240 237 234 232
357 346 332 327 322 321 314 299 297 309 317 308 302 300 300 297 292 287 287 286 285 287 282 281 282 281 279 275 272 271 273 268 268 281 277 270 276 282 263 253 256 257 251 250 246 243 242 239 239 239 238 236 236 234
347 338 333 355 364 349 337 320 314 299 319 310 308 306 303 298 293 290 290 238 291 289 284 281 282 280 274 273 275 271 267 271 271 273 287 278 275 271 258 248 251 258 256 251 249 247 242 239 238 237 235 234 237 239
270 301 355 347 339 335 348 357 352 333 320 319 306 315 313 309 300 294 291 292 293 290 282 281 286 285 280 277 276 270 259 260 272 275 274 287 283 273 261 254 261 274 260 253 248 247 246 245 242 239 236 236 237 239
266 264 265 270 295 362 350 341 331 340 354 343 326 319 322 317 312 305 302 301 299 298 294 289 286 284 281 282 281 282 279 263 261 272 274 287 299 284 275 259 264 267 268 258 252 249 248 248 247 246 244 244 242 241
264 264 263 263 269 270 272 367 362 351 341 329 326 332 336 331 327 318 314 307 285 306 296 297 298 296 293 292 288 286 285 286 289 275 294 285 309 302 279 285 275 263 260 260 252 259 257 253 251 251 250 250 248 246
278 274 265 267 263 263 265 267 271 331 378 364 350 336 327 316 321 330 331 332 322 317 316 312 308 307 304 301 304 304 303 305 293 300 305 314 314 303 275 262 279 284 279 271 262 256 249 248 254 257 261 263 263 263
259 269 281 285 275 267 265 264 266 268 271 338 415 384 366 349 333 318 310 319 327 330 330 327 330 328 320 319 318 318 318 316 317 317 317 310 306 302 291 274 284 286 283 278 277 274 269 257 253 255 252 250 251 258
255 258 257 270 281 290 286 273 263 265 267 270 274 304 409 413 392 363 343 327 317 313 330 329 331 332 333 333 335 335 332 333 320 317 316 308 306 303 299 290 284 282 279 275 272 266 260 254 251 255 259 267 257 260
267 257 248 262 265 281 289 298 291 269 268 269 270 273 278 451 432 397 397 394 351 333 318 314 315 309 305 308 309 312 313 311 307 307 308 304 300 298 297 293 289 285 282 279 275 272 272 271 271 261 265 269 254 254
266 267 259 257 259 265 273 291 300 305 285 272 270 270 272 277 422 449 431 405 379 398 362 333 322 314 311 306 297 297 299 299 299 298 298 298 299 298 294 290 286 283 279 277 275 272 255 258 258 258 262 264 265 268
262 270 274 259 260 260 264 275 292 302 307 314 277 268 268 274 276 336 441 444 432 398 373 383 371 332 320 314 309 304 298 292 289 288 288 288 285 285 286 286 286 286 284 276 273 271 270 271 273 274 275 276 278 284
250 268 278 273 261 264 258 268 280 299 308 312 320 278 273 272 274 276 321 445 446 434 406 383 370 364 388 340 325 315 309 305 300 299 295 292 289 288 285 282 281 280 279 278 278 279 279 283 285 289 294 296 300 341
262 272 277 271 274 258 260 254 266 298 307 315 340 327 308 275 274 274 280 350 453 438 431 409 384 369 362 358 369 377 359 329 318 312 307 305 303 302 301 301 301 300 300 301 302 303 304 316 321 362 347 346 340 335

GFSWCAN_2pvu_pres_171.txt.gz
Presure
420 418 417 413 409 404 401 399 397 395 394 390 387 386 384 381 378 382 378 384 390 401 404 405 397 386 367 339 337 324 312 293 297 298 297 300 307 319 319 325 338 326 342 330 323 319 312 299 295 299 287 285 282 282
412 411 407 407 407 405 403 402 390 386 384 382 381 387 387 379 369 367 366 362 367 374 378 378 381 370 361 323 329 309 297 298 301 297 298 299 305 309 324 316 316 325 322 319 317 308 301 293 288 286 279 277 271 276
412 415 418 411 408 444 424 406 397 392 394 403 421 467 461 389 374 369 359 352 361 367 363 359 356 354 346 317 319 295 296 291 292 292 294 299 304 316 320 315 320 316 316 316 309 295 291 294 281 284 277 274 274 271
383 375 384 387 384 385 431 425 408 401 393 405 441 432 425 437 423 363 373 356 353 353 353 349 350 348 324 318 312 301 293 291 291 297 293 304 307 310 313 322 320 314 304 300 297 288 296 288 277 270 279 272 272 269
368 368 381 382 369 385 384 437 432 415 407 420 416 408 427 449 466 459 355 373 355 343 347 350 351 319 308 303 304 291 288 287 293 290 297 298 300 318 311 320 302 305 297 297 294 298 293 270 276 275 270 266 264 261
382 355 392 384 371 381 386 414 420 414 412 411 408 429 430 439 451 485 354 380 343 340 339 340 309 307 300 299 298 286 286 289 292 306 304 290 297 316 314 307 291 292 302 311 295 285 291 278 272 269 272 262 268 259
387 389 450 399 368 382 405 434 410 416 411 430 429 431 437 460 475 365 369 342 330 338 331 314 302 298 300 303 308 304 296 289 288 302 293 285 297 320 312 285 286 300 319 312 297 288 267 267 261 265 261 266 254 249
370 564 545 491 460 454 461 437 424 424 442 435 429 445 462 419 353 360 340 332 338 326 320 303 298 295 295 296 294 296 293 285 301 289 289 293 308 323 281 277 299 309 299 285 276 265 262 267 269 265 268 251 255 258
392 396 515 512 491 467 475 437 453 445 444 440 456 360 347 363 345 333 327 331 328 315 308 299 296 305 305 295 289 294 293 292 286 286 290 306 309 302 287 279 254 281 273 269 263 266 277 267 259 263 257 266 256 257
362 380 383 506 491 478 469 465 462 396 353 346 369 353 337 330 328 329 322 330 317 303 300 299 293 287 288 288 276 279 279 290 289 295 312 318 336 305 302 293 260 263 261 263 262 262 260 260 259 257 258 260 268 268
310 348 364 384 362 358 380 369 343 346 338 336 331 325 322 316 322 312 311 310 302 303 304 303 296 298 279 284 278 291 286 289 295 311 315 326 305 301 294 276 269 275 265 262 260 260 259 259 258 258 263 267 265 268
299 300 334 356 361 349 337 330 328 325 325 329 325 324 321 317 312 307 310 299 307 303 297 286 273 283 292 286 277 279 289 309 307 326 317 300 291 282 277 283 281 268 262 262 260 256 254 257 264 270 267 264 262 268
299 306 298 303 320 296 315 309 314 309 322 314 312 323 313 301 303 300 307 294 290 275 275 285 290 280 280 276 279 305 303 307 319 309 300 286 282 273 275 272 275 262 263 262 251 250 261 260 261 269 262 261 265 259
308 300 298 293 303 301 313 298 309 319 289 307 305 302 288 298 300 288 288 286 289 290 286 284 269 269 283 290 303 304 299 312 307 291 292 289 278 277 270 270 268 266 260 260 260 254 258 267 264 268 258 260 263 259
310 306 304 309 301 294 300 293 279 291 302 295 299 294 296 290 286 287 273 274 277 273 277 276 277 286 300 301 303 295 299 305 292 290 293 287 282 288 270 270 264 268 263 257 257 255 262 270 267 274 258 260 262 248
312 311 313 314 301 306 302 289 283 292 289 282 285 287 275 299 289 274 278 278 278 284 290 294 299 303 295 296 298 294 300 300 286 286 286 282 277 281 281 262 261 278 272 262 262 258 265 270 272 276 258 263 255 247
335 322 315 314 316 323 319 298 301 296 281 291 286 290 288 290 291 291 294 296 298 302 307 304 302 301 298 296 294 296 294 295 284 285 289 272 269 273 271 261 272 273 264 260 262 263 265 270 275 279 251 262 258 248
355 331 331 326 327 324 317 317 322 326 320 319 312 310 309 306 305 305 305 308 309 314 312 312 300 300 296 295 296 298 292 293 292 282 271 264 273 276 273 271 272 268 267 265 265 269 273 277 279 279 252 261 263 248
316 346 341 333 327 322 330 311 318 322 316 315 317 317 317 315 312 310 309 309 313 311 312 300 304 302 295 297 303 301 294 289 288 278 278 281 280 270 268 273 268 268 267 272 280 274 276 290 282 276 260 248 264 254
264 266 266 275 302 341 332 330 321 315 308 321 329 330 329 328 326 325 328 336 315 317 305 301 300 304 302 299 297 295 298 291 283 279 274 273 272 270 268 267 270 278 273 274 279 279 277 276 277 278 259 253 261 263
283 289 262 263 263 268 270 275 340 336 330 328 325 325 318 313 308 309 316 313 309 312 309 312 305 298 295 298 301 298 297 297 294 287 280 277 278 279 280 274 272 276 276 275 271 272 273 268 275 279 264 256 254 262
254 263 275 287 291 272 261 262 264 266 272 330 347 335 334 329 319 313 308 307 306 304 300 294 294 290 286 287 290 290 287 289 290 292 287 285 281 279 277 274 281 273 267 267 270 270 269 269 266 281 272 261 256 259
247 250 253 258 263 280 285 291 289 262 263 264 266 271 309 343 336 328 322 318 312 306 300 295 292 293 289 286 288 285 277 280 282 281 280 278 279 276 277 275 270 264 261 261 267 280 280 273 268 274 278 277 262 253
262 255 251 244 251 252 256 276 282 287 297 291 259 260 264 265 268 289 345 337 330 323 316 310 303 297 295 296 294 293 284 278 282 282 278 278 275 271 269 264 265 269 273 270 267 270 272 274 284 277 273 275 274 268
263 257 253 248 249 242 247 250 253 261 287 288 291 306 296 258 260 264 268 272 352 349 339 328 327 321 314 305 298 295 293 289 284 279 277 276 272 268 267 271 273 270 260 261 260 262 265 276 284 277 279 288 278 275
265 264 259 255 253 245 247 250 248 252 252 260 269 289 296 305 306 263 266 266 268 271 291 352 343 336 333 328 326 313 309 303 299 292 287 286 283 279 277 277 275 271 275 273 275 270 265 261 263 276 284 283 278 300
261 262 257 254 254 254 252 256 246 249 251 255 254 258 271 293 299 318 330 278 265 264 269 273 306 361 348 338 330 328 329 326 317 309 304 301 299 296 293 289 286 282 287 288 289 289 292 307 313 310 289 292 297 305
272 265 261 254 248 254 256 255 255 259 257 255 261 262 256 264 294 301 313 324 319 267 266 265 269 276 329 375 355 341 329 323 318 323 328 324 321 317 315 313 315 317 320 322 323 320 308 310 310 309 313 306 301 300
263 262 259 256 248 253 257 258 258 263 265 255 253 259 262 328 266 271 305 317 325 323 306 268 267 269 274 291 423 401 371 347 332 321 312 309 311 313 315 317 316 321 322 322 322 322 320 312 307 307 306 302 300 298
262 261 254 254 253 250 255 263 262 263 264 264 257 261 262 275 338 299 273 310 324 356 331 317 274 271 272 276 426 440 426 400 384 361 336 318 308 307 306 308 308 306 304 305 305 303 302 300 299 299 298 296 293 291
261 262 263 263 261 258 267 250 266 263 255 262 264 258 259 271 267 340 331 326 316 331 366 337 318 274 273 275 281 438 436 424 411 381 373 370 336 312 305 306 300 298 294 293 294 293 291 289 287 284 282 280 279 278
259 264 261 264 264 263 267 267 273 269 260 257 266 262 262 262 275 334 329 328 326 319 353 358 340 315 286 275 281 443 430 439 413 398 381 354 367 365 320 307 307 299 293 291 291 290 288 287 285 285 283 283 283 283
263 259 266 264 264 268 270 270 272 275 269 259 264 281 261 264 276 335 333 332 326 327 345 363 352 326 307 276 278 302 436 429 420 400 385 373 353 351 368 355 324 308 305 304 301 296 294 293 293 293 294 297 299 302

GFSWCAN_2pvu_pres_174.txt.gz
Presure
258 264 268 269 266 268 278 275 275 285 364 407 405 401 399 396 394 392 383 382 384 396 406 401 402 401 390 369 351 333 325 320 324 320 315 316 308 301 302 303 310 296 302 308 322 323 321 310 308 314 319 313 304 295
266 266 277 279 291 291 299 458 452 438 427 421 414 413 412 391 388 386 384 375 373 379 381 376 383 378 391 389 384 345 328 330 322 326 316 303 296 303 300 299 306 301 316 321 322 325 315 311 304 297 293 290 289 284
299 321 391 393 403 397 402 390 384 398 430 424 406 395 392 396 402 422 417 373 375 369 363 363 355 363 376 376 373 340 339 307 311 310 304 306 294 295 301 300 302 310 316 320 320 309 307 303 292 287 293 290 282 279
385 390 385 375 370 363 359 381 383 380 382 419 418 406 402 400 416 455 430 425 364 357 356 345 351 360 368 360 348 325 315 313 309 296 298 294 296 297 294 301 306 306 310 313 314 302 305 301 293 291 283 281 277 271
376 395 399 394 389 361 366 385 379 375 380 400 425 413 407 410 425 422 426 461 372 360 343 338 345 348 353 341 325 317 298 297 304 299 293 299 296 303 296 295 294 310 308 324 315 312 307 300 295 288 280 277 269 271
389 407 398 391 389 371 355 374 371 371 376 411 428 406 415 409 408 418 427 469 369 357 337 334 346 347 347 321 311 300 301 296 291 288 289 290 296 302 305 288 281 305 315 323 314 316 301 292 293 282 280 273 273 271
422 418 530 616 457 402 387 377 374 381 392 424 418 411 405 410 424 430 440 463 368 344 331 342 333 332 322 310 303 308 304 296 292 291 293 293 299 312 304 282 288 305 321 309 308 298 300 288 281 275 277 277 265 260
408 539 547 541 447 422 397 381 389 392 421 425 434 427 420 434 438 450 405 361 350 335 340 330 308 306 306 295 292 295 286 296 290 289 288 288 300 298 291 281 303 309 310 300 288 288 277 275 283 291 274 269 267 260
386 527 515 519 445 419 409 397 398 428 446 452 433 446 454 459 388 360 372 348 344 340 327 315 310 305 305 293 296 299 303 298 303 290 290 292 288 297 317 321 301 298 293 283 286 283 286 285 284 262 261 263 261 259
381 391 535 507 510 482 472 478 470 476 459 399 371 357 362 364 349 335 335 335 335 326 302 305 307 301 309 303 282 279 283 292 286 283 287 288 297 323 337 337 298 290 283 283 283 283 280 266 260 266 260 261 261 260
337 334 353 364 383 387 376 381 371 361 352 352 338 335 330 331 327 326 336 326 321 311 306 300 299 298 298 292 280 284 281 279 288 281 284 294 311 329 317 272 282 273 282 282 275 266 266 268 266 255 255 257 259 259
306 319 310 311 322 317 341 341 342 342 336 338 333 331 326 328 333 334 320 316 309 305 299 292 290 290 283 278 277 280 282 277 282 291 300 311 325 304 296 302 258 259 264 262 259 262 262 262 260 259 259 258 257 259
310 301 321 319 313 319 317 307 330 329 338 343 332 331 322 321 337 331 316 310 310 308 311 305 303 281 269 285 279 274 276 280 294 300 308 320 304 290 286 290 262 267 269 267 268 266 262 264 259 256 256 259 272 268
299 309 308 309 313 295 325 300 326 326 328 310 306 302 301 299 300 294 289 286 280 289 281 281 278 278 280 278 279 278 281 305 296 307 312 312 293 282 280 278 282 273 270 266 267 261 260 255 250 261 259 259 266 266
309 303 301 302 302 298 299 309 295 300 313 307 305 296 302 295 295 286 285 285 279 284 288 284 286 278 275 273 284 302 303 296 301 310 306 301 286 278 271 270 272 278 266 260 265 261 256 256 249 248 263 260 264 266
326 321 312 310 298 297 299 296 296 286 299 298 298 291 291 284 284 280 273 279 283 275 278 279 278 278 282 297 297 302 298 295 300 302 295 287 288 281 276 272 272 268 270 267 268 264 261 256 258 253 266 267 264 272
330 331 330 329 326 313 310 306 301 299 296 295 295 294 296 296 293 293 292 290 291 289 294 287 296 298 302 298 296 299 296 294 296 302 292 287 290 282 278 285 289 286 269 264 265 273 265 260 261 257 261 267 269 276
270 278 329 333 317 338 331 325 324 316 314 311 307 310 305 305 304 304 304 304 303 303 309 311 318 310 309 299 296 293 296 298 295 302 298 286 283 279 272 273 282 284 275 259 268 270 262 260 259 265 265 272 272 281
276 262 260 262 268 299 314 324 322 311 312 321 321 320 321 313 312 314 311 312 311 311 312 313 311 306 311 303 299 298 296 291 298 294 298 290 286 287 271 269 274 279 276 272 273 270 269 268 269 270 284 271 277 283
268 278 284 289 276 259 259 262 269 286 332 325 321 332 333 332 327 322 319 319 321 324 328 314 318 315 310 309 303 298 295 306 302 296 291 298 292 277 267 279 277 272 269 270 274 273 269 271 270 279 281 281 278 277
252 251 250 261 273 285 292 293 261 258 258 263 268 276 337 334 326 318 318 321 323 323 322 318 316 303 301 306 307 305 303 306 306 305 292 287 288 284 282 280 279 277 274 268 269 274 278 273 278 273 273 274 271 268
255 253 251 251 250 253 256 267 275 284 289 283 271 257 260 263 269 322 326 325 320 316 316 315 315 314 312 307 302 300 300 299 304 304 301 297 292 285 283 281 279 278 281 276 277 273 278 274 273 273 272 271 272 262
255 253 253 252 251 250 256 251 253 255 259 266 278 290 307 290 256 259 262 269 305 337 326 317 312 310 302 298 295 295 290 287 287 288 289 290 294 294 292 289 286 284 283 280 278 282 274 270 265 262 263 272 277 277
260 258 250 251 253 255 256 255 257 254 254 253 255 259 265 279 295 305 305 259 258 262 267 289 334 324 319 314 308 300 299 293 288 287 287 280 279 280 283 282 278 277 278 280 278 275 267 266 265 268 270 268 266 265
267 257 254 251 248 245 252 253 254 255 259 253 253 260 258 270 264 298 290 305 330 271 258 260 263 269 345 340 329 322 316 308 300 297 294 290 287 284 279 277 278 278 276 273 271 269 266 268 270 271 263 259 263 265
260 262 257 255 250 243 249 252 255 255 258 258 256 256 254 257 261 302 313 282 300 308 326 304 261 261 261 267 273 355 344 334 324 316 309 302 298 294 286 283 283 281 278 275 274 273 273 272 271 270 270 270 261 266
264 263 257 252 250 248 243 245 255 252 254 259 259 259 259 255 259 262 265 330 309 290 305 321 323 311 262 263 262 266 275 362 348 336 332 323 315 306 302 295 291 288 281 279 278 278 277 277 277 277 277 281 284 291
258 260 257 263 259 258 260 255 254 259 257 256 263 254 264 262 262 260 261 262 313 324 318 317 317 342 328 312 264 265 266 267 389 372 354 342 328 326 323 314 306 303 301 295 292 291 291 290 290 291 293 298 317 326
258 259 260 263 262 267 259 265 263 264 267 250 270 266 264 258 260 263 264 263 269 326 331 323 317 312 349 344 322 297 265 269 269 296 435 400 361 346 331 321 318 321 318 314 309 307 309 310 319 312 315 317 318 317
256 260 265 264 265 263 266 267 265 268 268 267 266 269 267 261 257 257 276 266 264 271 332 328 325 319 325 350 338 325 303 268 271 271 403 449 429 408 379 351 334 319 308 303 303 304 305 310 308 307 304 302 301 300
266 268 269 272 267 269 270 272 269 272 271 268 269 267 267 271 266 262 267 268 272 276 336 338 332 324 320 352 359 351 326 298 271 274 277 435 436 424 413 390 377 361 338 320 307 300 299 300 300 299 295 290 289 288
266 268 274 278 278 280 277 271 260 267 268 266 268 271 276 277 321 328 325 334 337 336 351 346 342 339 327 334 363 355 334 309 298 276 277 433 436 420 407 396 379 363 366 363 335 320 303 296 298 296 291 288 287 286
272 279 286 281 254 260 287 261 271 277 284 300 310 345 346 346 345 345 348 350 356 365 365 361 353 344 335 335 364 353 335 314 302 278 293 426 427 415 397 386 378 366 352 348 360 347 328 313 299 295 294 295 294 295